Location: Newark
(45.2500°N, 7.5833°E)
Time: 01:35:48
(UTC+00:00)

N. Korean satellite - Pass Details

Date: 21 December 2019
Orbit: 454 x 507 km, 97.2° (Epoch: 23 January)

Event Time Altitude Azimuth Distance (km) Brightness Sun altitude
Rises 17:11:07 0° 194° (SSW) 2,582 10.7 -13.6°
Reaches altitude 10° 17:13:28 10° 207° (SSW) 1,696 10.0 -14.0°
Maximum altitude 17:16:32 25° 265° (W) 1,027 9.1 -14.5°
Drops below altitude 10° 17:19:36 10° 322° (NW) 1,685 9.5 -15.0°
Sets 17:21:55 0° 336° (NNW) 2,562 10.3 -15.4°
